TIME,DELAY(SENSOR),PRES,T(CTD),SAL,OXYGEN,RAWTEMP,T(OPTODE),TCPHASE,FLUOR,BETA(BETA700),BETA(BETA412),BETA(BETA440),CDOM,C(CSC),ED(ED411.90),ED(ED443.80),ED(ED489.40),ED(ED554.70),LU(LU412.20),LU(LU443.80),LU(LU489.40),LU(LU555.00),COMP,TILTX,TILTX(TILTY),CHECK
1346944161,5803,496.9800109863281000,17.8397998809814450,36.5271987915039060,235.6024932861328000,175.2398986816406200,17.8350906372070300,31.5507392883300780,50,107,97,83,66,15373,2147480978,2147764461,2147557138,2147796982,2147313782,2147481892,2147709120,2148242651,535,7,13,47569
1346944278,5803,485.4500122070312500,17.8815002441406250,36.5345993041992200,236.1334991455078000,173.7413024902343800,17.8807201385498050,31.5052299499511720,50,106,97,85,65,15373,2147484544,2147766720,2147559232,2147790683,2147304064,2147481865,2147703542,2148242404,620,7,13,26733
1346944393,5801,474.1000061035156000,17.9244995117187500,36.5424003601074200,236.5021972656250000,172.3551025390625000,17.9229202270507800,31.4687995910644530,50,107,98,84,66,15374,2147486144,2147765714,2147557412,2147791204,2147303808,2147483008,2147707858,2148241243,438,7,12,65443
1346944508,5805,462.9599914550781000,17.9787998199462900,36.5512008666992200,236.7864074707031200,170.5975952148437500,17.9764308929443360,31.4313907623291000,50,109,97,83,66,15374,2147484315,2147767862,2147561782,2147791899,2147305060,2147482221,2147703259,2148242852,614,7,13,55773
1346944625,5805,451.7300109863281000,18.0156993865966800,36.5565986633300800,236.8892059326172000,169.4515991210937500,18.0113296508789060,31.4110794067382800,50,107,98,82,65,15373,2147484269,2147763520,2147558884,2147794724,2147298889,2147481051,2147705508,2148241920,597,7,13,45501
1346944740,5803,440.9800109863281000,18.0466003417968750,36.5619010925293000,236.8110046386718800,168.3101959228515600,18.0460891723632800,31.3996696472167970,50,112,99,84,65,15389,2147484580,2147765787,2147559149,2147792969,2147306194,2147481426,2147704822,2148242569,1036,7,13,30806
1346944855,5802,430.3500061035156000,18.0704002380371100,36.5643997192382800,236.6264953613281200,167.4300994873047000,18.0728893280029300,31.3964996337890620,50,107,98,83,66,15388,2147485814,2147766317,2147559963,2147794258,2147307666,2147484937,2147709193,2148243638,1273,7,12,24933
1346944972,5802,419.5799865722656000,18.0949993133544920,36.5671997070312500,236.4277954101562500,166.7837066650390600,18.0925807952880860,31.3972206115722660,50,107,97,83,65,15391,2147486281,2147766217,2147559305,2147792841,2147308068,2147482157,2147703597,2148241974,2075,7,13,57719
1346945099,5805,408.1600036621094000,18.1317005157470700,36.5721015930175800,236.0874023437500000,165.5476074218750000,18.1302204132080080,31.3970298767089840,50,108,97,82,65,15389,2147486774,2147766976,2147560640,2147791286,2147311442,2147481718,2147703149,2148243355,2320,7,13,58474
1346945228,5803,396.7799987792969000,18.1634998321533200,36.5752983093261700,235.6315002441406200,164.5142059326172000,18.1616992950439450,31.4047203063964840,50,109,97,83,66,15390,2147485220,2147765696,2147561371,2147790619,2147301796,2147485184,2147704027,2148239369,2020,7,12,52262
1346945355,5803,385.7799987792969000,18.2136993408203120,36.5792007446289060,234.8495025634765600,162.9430999755859400,18.2095603942871100,31.4215698242187500,50,109,98,83,66,15386,2147485933,2147765979,2147562148,2147790390,2147304722,2147486829,2147707236,2148239158,2198,7,13,27087
1346945494,5806,373.8800048828125000,18.2872009277343750,36.5848007202148440,233.5066986083984400,160.4548034667968800,18.2853603363037100,31.4527301788330080,50,108,97,83,66,15384,2147484434,2147763026,2147558637,2147792667,2147298441,2147484516,2147704118,2148244324,2517,7,13,56249
1346945623,5800,362.9400024414062500,18.3554992675781250,36.5936012268066400,233.0854949951172000,158.1670989990234400,18.3550701141357420,31.4424095153808600,50,108,98,83,67,15383,2147489097,2147765101,2147560886,2147791606,2147305782,2147479451,2147705042,2148241124,2573,8,13,26547
1346945750,5804,352.4200134277344000,18.4543991088867200,36.5998001098632800,231.2651977539062500,154.9096069335937500,18.4543399810791000,31.4873695373535160,50,108,98,85,65,15386,2147488228,2147764653,2147558427,2147788425,2147304950,2147480320,2147707026,2148240118,2830,7,12,51549
1346945879,5802,341.7900085449219000,18.6058998107910160,36.6105003356933600,228.8475952148437500,149.9252929687500000,18.6062698364257800,31.5391998291015620,50,109,98,84,68,15382,2147490541,2147763986,2147559213,2147792073,2147307629,2147481865,2147703972,2148241682,2916,7,13,15136
1346946018,5805,330.2000122070312500,18.6627998352050780,36.6013984680175800,227.9197998046875000,147.9326019287109400,18.6670207977294920,31.5583000183105470,50,109,97,84,66,15385,2147489206,2147763867,2147562587,2147791744,2147306441,2147483657,2147710838,2148241097,3143,7,12,12301
1346946145,5807,319.5000000000000000,18.8742008209228500,36.6175003051757800,227.3764038085937500,141.3750000000000000,18.8670196533203120,31.4974708557128900,49,109,97,83,66,15385,2147493769,2147766473,2147565440,2147790893,2147312438,2147483977,2147708169,2148239616,72,7,12,63800
1346946274,5806,308.5599975585937500,18.9333000183105470,36.6148986816406250,226.5673065185547000,139.6432037353515600,18.9198493957519530,31.5146694183349600,50,108,96,83,66,15386,2147489590,2147762870,2147565357,2147790747,2147309568,2147481563,2147709851,2148242578,689,7,12,44714
1346946413,5804,297.2699890136719000,19.0555000305175780,36.6180000305175800,229.4620056152343800,135.2402038574218800,19.0541992187500000,31.3125000000000000,50,108,96,84,66,15387,2147487195,2147763053,2147570057,2147790930,2147310061,2147484681,2147708132,2148237924,745,7,12,62927
1346946554,5805,286.6499938964844000,19.0620994567871100,36.5857009887695300,235.7377014160156200,135.0484008789062500,19.0600490570068360,31.0072193145751950,50,107,96,84,64,15390,2147491346,2147765869,2147574729,2147790427,2147306048,2147486125,2147717074,2148239488,3382,8,13,9217
1346946705,5806,276.1000061035156000,19.1352005004882800,36.5766983032226560,244.9772033691406200,132.6080017089843800,19.1345500946044920,30.5463905334472660,49,106,97,84,65,15391,2147488950,2147768950,2147580772,2147788745,2147312649,2147486656,2147716662,2148238025,95,7,12,25765
1346946875,5804,264.0400085449219000,19.2294998168945300,36.5750007629394500,247.0673980712890600,129.0610961914062500,19.2428302764892580,30.4058494567871100,50,109,98,84,64,15383,2147491181,2147769188,2147593718,2147787062,2147310153,2147489618,2147722660,2148243858,3012,8,12,21096
1346947002,5804,253.0200042724609400,19.3439998626709000,36.5904998779296900,245.2008972167968800,125.4084014892578100,19.3543796539306640,30.4421997070312500,50,108,96,83,64,15383,2147490614,2147773238,2147606244,2147786870,2147307163,2147491666,2147732242,2148240073,2806,8,12,40975
1346947131,5803,242.3000030517578000,19.3899993896484380,36.5808982849121100,246.6710968017578000,124.4746017456054700,19.3829097747802730,30.3637790679931640,50,110,97,84,63,15383,2147495680,2147773814,2147610669,2147791808,2147305161,2147495140,2147738889,2148243529,1779,7,12,9929
1346947258,5802,231.6799926757812500,19.4454002380371100,36.5866012573242200,247.8885955810547000,122.5889968872070300,19.4405097961425780,30.2847404479980470,50,110,98,84,65,15383,2147492123,2147773238,2147614390,2147791424,2147310189,2147498934,2147758610,2148240045,1404,7,12,53729
1346947397,5804,220.1199951171875000,19.4626007080078120,36.5791015625000000,250.6212005615234400,121.9888992309570300,19.4588508605957030,30.1559906005859380,53,114,98,83,64,15378,2147495387,2147795318,2147685101,2147788068,2147310747,2147504694,2147778624,2148241709,1147,7,12,45137
1346947526,5805,209.2100067138672000,19.5254993438720700,36.5834999084472660,249.3121948242187500,119.7611007690429700,19.5269203186035160,30.1848793029785160,56,112,97,83,63,15374,2147495908,2147805129,2147721069,2147787876,2147313508,2147516187,2147805083,2148243913,725,7,12,14274
1346947653,5803,198.0800018310547000,19.6812992095947270,36.5931015014648440,248.9514007568359400,114.7332992553711000,19.6806106567382800,30.1356201171875000,61,112,97,82,65,15374,2147500644,2147833600,2147800630,2147787702,2147313865,2147531209,2147841993,2148244617,96,7,12,2005
1346947708,5804,193.2799987792968800,19.8560009002685550,36.6263999938964840,245.0545043945312500,109.1293029785156200,19.8519897460937500,30.2371101379394530,57,111,97,84,66,15375,2147501229,2147842441,2147833508,2147788196,2147320566,2147535926,2147867995,2148248594,3225,8,12,19025
1346947783,5801,187.1399993896484400,19.9099998474121100,36.6239013671875000,244.0933074951172000,107.3995971679687500,19.9049091339111330,30.2580299377441400,61,115,98,84,65,15369,2147503579,2147822976,2147784832,2147788946,2147319808,2147544621,2147896173,2148246857,2555,7,12,9285
1346947838,5805,183.1600036621093800,19.8964996337890620,36.6144981384277340,246.7465057373047000,107.7265014648437500,19.8949108123779300,30.1428108215332030,61,114,97,83,65,15368,2147506980,2147833782,2147715318,2147788836,2147319250,2147559168,2147918637,2148249206,1835,7,12,45324
1346947893,5802,179.2599945068359400,19.9377994537353500,36.6085014343261700,250.8572998046875000,106.3139038085937500,19.9381294250488280,29.9430694580078120,63,116,99,85,66,15366,2147516406,2147904694,2148014281,2147789101,2147324425,2147575369,2147945234,2148249691,1611,8,12,1512
1346947948,5805,175.6300048828125000,20.0240001678466800,36.6189994812011700,252.4223937988281200,103.6034011840820300,20.0210800170898440,29.8399391174316400,65,117,97,84,65,15359,2147521709,2147921042,2148029449,2147789321,2147323867,2147584795,2147984000,2148254262,1457,7,12,13104
1346948003,5800,172.3200073242187500,20.1145000457763670,36.6319007873535160,251.7760009765625000,100.5933990478515600,20.1132297515869140,29.8295097351074220,67,116,98,84,64,15360,2147521892,2147904420,2147897353,2147788013,2147329764,2147595062,2148008173,2148254592,1495,7,13,17317
1346948092,5803,168.0299987792968800,20.2768993377685550,36.6610984802246100,245.6945037841797000,95.5381469726562500,20.2680492401123050,30.0326690673828120,70,118,98,86,65,15362,2147529965,2147933046,2147948544,2147788352,2147332242,2147614582,2148046162,2148258422,1587,7,12,40619
1346948219,5805,163.8500061035156200,20.3332996368408200,36.6348991394043000,246.0238952636718800,93.5318832397461000,20.3295192718505860,29.9921092987060550,74,120,97,86,67,15363,2147546898,2148022610,2148317933,2147786944,2147338596,2147639680,2148097984,2148260251,960,7,13,41612
1346948334,5801,159.9499969482422000,20.5109996795654300,36.6450004577636700,247.7261962890625000,88.3870086669921900,20.4872207641601560,29.8505802154541000,83,120,99,85,64,15349,2147565787,2148089700,2148472146,2147790902,2147338395,2147663286,2148155840,2148259958,865,8,12,17021
1346948446,5803,155.1199951171875000,20.6914997100830080,36.6726989746093750,245.2682037353515600,81.7406768798828100,20.6910705566406250,29.8747406005859380,86,121,100,85,65,15344,2147581878,2148077595,2148388617,2147787958,2147351872,2147699995,2148241709,2148263286,1352,7,13,19094
1346948513,5801,151.6999969482422000,20.8027000427246100,36.6882019042968750,242.6248016357422000,78.3290863037109400,20.7957801818847660,29.9498596191406250,87,122,98,85,65,15340,2147606500,2148184731,2148740827,2147789348,2147358061,2147735122,2148310180,2148272502,1249,7,12,44887
1346948592,5805,147.7400054931640600,20.9393005371093750,36.6771011352539060,242.1508941650390600,74.3342132568359400,20.9184398651123050,29.9199790954589840,88,123,99,86,66,15336,2147644937,2148324251,2148998948,2147790774,2147372498,2147774272,2148391104,2148278866,970,7,13,9841
1346948683,5805,144.0399932861328000,21.0657005310058600,36.6591987609863300,246.6925048828125000,70.0557937622070300,21.0498790740966800,29.6622791290283200,82,123,99,87,65,15334,2147683538,2148421110,2149223661,2147793892,2147382144,2147820425,2148491492,2148284324,709,7,13,23250
1346948776,5802,140.8399963378906200,21.1665000915527340,36.6640014648437500,250.2787933349609400,66.5242233276367200,21.1584300994873050,29.4603996276855470,84,122,100,87,64,15335,2147696301,2148243666,2148904914,2147791890,2147401362,2147877869,2148599725,2148292278,1009,7,12,376
1346948891,5804,137.1900024414062500,21.4041996002197270,36.6857986450195300,251.5339965820312500,60.0635681152343750,21.3571491241455080,29.3243808746337900,84,122,100,86,65,15336,2147795026,2148652022,2149655945,2147798793,2147428480,2147945261,2148737627,2148300214,755,7,13,30793
1346949064,5803,132.3099975585937500,21.6525993347167970,36.6977005004882800,249.1213989257812500,50.7826004028320300,21.6429195404052730,29.3116493225097660,84,122,99,85,65,15329,2147958171,2149128320,2150513764,2147805065,2147473435,2148082953,2148993225,2148319872,1209,7,12,42150
1346949143,5804,128.7799987792968800,21.8563995361328120,36.7028007507324200,248.3585968017578000,44.5466690063476560,21.8351593017578120,29.2664699554443360,84,122,100,86,64,15322,2148061878,2149290322,2150846500,2147809462,2147516297,2148194368,2149188507,2148335488,849,8,12,18015
1346949258,5804,125.1999969482421900,21.8950996398925780,36.6764984130859400,249.6860961914062500,43.2427787780761700,21.8753700256347660,29.1924095153808600,86,122,99,86,65,15329,2148204580,2149544914,2151303469,2147815341,2147570413,2148333138,2149413467,2148353764,871,8,12,1000
1346949396,5805,120.8799972534179700,22.0851993560791000,36.6678009033203100,252.1524047851562500,36.8028793334960940,22.0741291046142580,29.0055503845214840,79,121,99,85,62,15328,2148231597,2149505901,2151511616,2147822573,2147666578,2148551030,2149734921,2148381046,457,8,12,27170
1346949499,5804,116.6999969482421900,22.2472991943359380,36.6633987426757800,251.8686065673828000,31.6980400085449220,22.2318191528320300,28.9539604187011720,87,121,99,86,63,15326,2148724672,2150450624,2152717851,2147847497,2147792612,2148817462,2150133723,2148414034,173,8,13,49574
1346949602,5805,113.0100021362304700,22.4395008087158200,36.6380004882812500,247.0157012939453000,25.4194297790527340,22.4259490966796880,29.0849399566650400,105,128,99,86,64,15317,2149115803,2151275309,2154010797,2147867584,2147930541,2149091520,2150541869,2148445138,142,8,12,56421
1346949704,5806,108.5699996948242200,22.7206993103027340,36.6391983032226560,238.9895935058593800,16.1409206390380860,22.7131996154785160,29.3248996734619140,115,129,99,87,64,15307,2149014875,2150338587,2153189979,2147875337,2148172845,2149541558,2151212269,2148506267,535,7,12,41394
1346949783,5803,104.6699981689453100,22.9080009460449220,36.6291999816894500,236.6690979003906200,10.4245595932006840,22.8904094696044920,29.3585090637207030,129,130,100,86,65,15292,2150345664,2153179382,2156976941,2147956873,2148428553,2149985737,2151852178,2148571858,155,8,12,6324
1346949886,5802,101.1500015258789000,23.0398006439209000,36.6291007995605500,237.1697998046875000,6.9213151931762695,22.9990997314453120,29.2918090820312500,136,129,98,87,64,15290,2150894445,2154111872,2158345033,2147988086,2148618313,2150304018,2152310729,2148611702,329,8,12,56437
1346949988,5802,98.5299987792968800,23.1532001495361330,36.6096000671386700,236.9465026855468800,2.6314880847930910,23.1322803497314450,29.2482109069824220,127,135,99,86,64,15287,2151568630,2155055908,2159863478,2148052050,2148878043,2150718546,2152941723,2148676288,458,8,12,27063
1346950043,5801,96.6800003051757800,23.3297996520996100,36.5989990234375000,235.8852996826172000,-2.5696280002593994,23.2938995361328120,29.2313194274902340,128,137,100,87,63,15282,2151957796,2155700928,2160895570,2148079268,2149038016,2150945654,2153289088,2148711844,447,8,12,4919
1346950098,5804,94.7699966430664000,23.5734996795654300,36.5665016174316400,235.1667022705078000,-10.8186397552490230,23.5505599975585940,29.1608009338378900,144,137,100,88,62,15267,2151886400,2154483995,2156389494,2148076726,2149280804,2151322020,2153829165,2148773458,250,8,12,57668
1346950153,5803,93.2699966430664000,23.7290992736816400,36.5666999816894500,233.3567962646484400,-16.6547794342041000,23.7323894500732420,29.1708793640136720,160,139,100,89,64,15258,2152989293,2156858523,2162085056,2148163922,2149411913,2151522020,2154090669,2148799424,3319,7,12,62792
1346950244,5802,91.4300003051757800,23.9720001220703120,36.5674018859863300,232.9824066162109400,-23.1028499603271500,23.9335403442382800,29.1076507568359380,161,139,100,87,64,15247,2153483437,2157442075,2160590491,2148165686,2149636992,2151837129,2154556717,2148850825,3492,8,12,1220
1346950358,5804,89.0299987792968800,24.2639999389648440,36.5707015991210940,230.5101013183593800,-32.9699707031250000,24.2418498992919920,29.0988407135009770,181,141,101,89,64,15210,2154118372,2156480804,2154601097,2148166866,2150138925,2152575899,2155586669,2148974573,2687,7,12,20225
1346950437,5803,87.4400024414062500,24.2819004058837900,36.5716018676757800,228.6513061523437500,-33.9796104431152340,24.2734394073486330,29.1732597351074220,196,144,100,87,64,15207,2154283401,2154447542,2152091181,2148141869,2150375862,2152905856,2156081673,2149027894,2321,8,12,37095
1346950564,5804,85.4100036621093800,24.3668003082275400,36.5677986145019500,227.7993011474609400,-36.7676696777343750,24.3606891632080080,29.1786994934082030,184,149,101,89,64,15191,2155607451,2157169609,2159325778,2148353261,2150837430,2153555008,2156980873,2149139867,1670,7,12,26572
1346950654,5802,83.2099990844726600,24.4475994110107420,36.5061988830566400,234.1508026123047000,-39.2011795043945300,24.4368896484375000,28.8533802032470700,146,142,100,89,63,15231,2159862098,2167620790,2176121636,2148686217,2151611574,2154604662,2158261988,2149300068,1169,8,12,7516
1346950721,5802,81.2300033569336000,24.5669002532959000,36.5105018615722660,237.3354034423828000,-42.8793792724609400,24.5521392822265620,28.6634407043457030,141,143,99,89,62,15230,2161559341,2169967698,2179026048,2148801581,2152477650,2155832475,2159720338,2149462180,1281,7,12,16600
1346950812,5801,79.5400009155273400,24.8283004760742200,36.4905014038085940,237.6938934326172000,-50.2388381958007800,24.7830104827880860,28.5564098358154300,130,137,100,88,63,15238,2163378505,2172312064,2181460114,2148939200,2153204233,2156796077,2160844809,2149591040,1491,8,12,6916
1346951034,5802,76.9499969482421900,25.2355995178222660,36.4452018737793000,234.5234985351562500,-63.5477409362793000,25.2014999389648440,28.5348091125488280,107,137,100,88,63,15234,2160670765,2163704301,2177867419,2148922294,2154368603,2158396571,2162758107,2149809398,2601,8,11,54573
1346951101,5803,75.5599975585937500,25.4521999359130860,36.4570007324218750,231.1992950439453000,-69.8765029907226600,25.4009609222412100,28.6082496643066400,110,134,100,89,62,15229,2167631670,2178074998,2187639990,2149299099,2154831378,2159023286,2163495990,2149913161,165,8,12,50521
1346951286,5803,73.0299987792968800,25.5569000244140620,36.4669990539550800,223.0455932617187500,-74.5895233154296900,25.5496997833251950,28.9321708679199220,126,145,100,89,63,15196,2162342409,2160337618,2156141942,2148245284,2156137298,2160791286,2165722112,2150201938,2564,8,12,12348
1346951353,5802,71.2699966430664000,25.6196002960205080,36.4506988525390600,219.7857971191406200,-76.5226364135742200,25.6107501983642580,29.0654792785644530,107,147,101,90,66,15206,2176769600,2189239862,2198475684,2149890404,2157390281,2162506724,2167730633,2150439277,1714,8,12,65238
1346951432,5804,69.2699966430664000,25.7180004119873050,36.4241981506347660,220.0736999511718800,-79.7049789428711000,25.7113208770751950,29.0116901397705080,103,136,99,90,65,15222,2166880000,2156819172,2162283904,2149482249,2159285531,2164963309,2170332470,2150790528,2167,8,12,19932
1346951557,5800,66.4000015258789000,25.7994995117187500,36.4001998901367200,223.2989959716797000,-82.3627166748046900,25.7953796386718750,28.8232803344726560,87,136,100,90,64,15227,2192162011,2205811008,2213007140,2151127451,2162900854,2169310601,2174399268,2151362953,3503,8,12,1434
1346951612,5803,64.0899963378906200,25.9662990570068360,36.3476982116699200,225.0592041015625000,-87.7551269531250000,25.9660892486572270,28.6727600097656250,84,136,100,89,62,15239,2199631862,2213785115,2220242084,2151722020,2165784941,2172727131,2177608320,2151776832,3345,8,12,23107
1346951667,5804,62.1500015258789060,26.2759990692138670,36.3204994201660160,227.7852020263672000,-95.4490585327148400,26.2100601196289060,28.4497203826904300,78,142,102,89,62,15225,2204729929,2218241856,2223532342,2152243739,2168324745,2175425197,2180134107,2152152219,3064,8,12,58195
1346951758,5803,60.5699996948242200,26.4204006195068360,36.3031005859375000,231.3316040039062500,-100.4331970214843800,26.3683700561523440,28.2251491546630860,78,141,102,91,60,15236,2209706468,2223981988,2229477952,2152770130,2170821293,2178345545,2182980406,2152534893,3460,8,12,52313
1346951919,5803,58.6100006103515600,26.8442993164062500,36.2374000549316400,234.4906005859375000,-113.7945022583007800,26.7937698364257800,27.9187908172607420,79,143,103,90,60,15217,2216390363,2230699044,2235728082,2153628470,2176281846,2184271853,2188264685,2153240457,1024,7,12,19196
1346952237,5802,56.2900009155273440,27.1891002655029300,36.1954994201660160,237.9154968261718800,-125.2741012573242200,27.1604900360107420,27.6273097991943360,74,150,103,92,57,15211,2225385718,2240293851,2244947629,2154450651,2183627913,2192077915,2194663497,2154042413,862,8,11,40451
1346952580,5805,51.5900001525878900,27.3927001953125000,36.1593017578125000,240.3574066162109400,-132.3605957031250000,27.3874492645263670,27.4349098205566400,75,143,102,92,58,15197,2244069842,2258752201,2262329472,2157420233,2199336667,2207823478,2207930075,2155786093,1569,8,12,24242
1346952614,5802,50.4399986267089840,27.4337997436523440,36.1572990417480500,240.5276947021484400,-133.6795043945312500,27.4297409057617200,27.4116802215576170,72,145,102,94,59,15197,2248295670,2262543533,2265821110,2158647085,2203855286,2212392740,2211953490,2156585526,1891,8,11,36824
1346952671,5805,48.8499984741210940,27.5286006927490230,36.1291999816894500,240.5411987304687500,-136.8339996337890600,27.5309600830078120,27.3728294372558600,71,147,103,92,58,15202,2253364150,2267071049,2269821202,2159869641,2208281490,2216584000,2214963145,2157050788,2163,8,11,6523
1346952787,5803,46.7799987792968750,27.7005004882812500,36.1053009033203100,240.2364959716797000,-142.0899963378906200,27.6998195648193360,27.3222103118896500,68,142,102,92,57,15200,2263242450,2277268544,2280140388,2161782921,2219162550,2227858550,2224616301,2158537398,1287,8,11,18704
1346952868,5804,44.7299995422363300,28.0611991882324220,36.1127014160156250,238.5968017578125000,-152.6441040039062500,28.0396499633789060,27.2652301788330080,64,143,102,93,59,15209,2271461878,2285476525,2287889691,2164014838,2227641124,2235525321,2229897490,2159513664,756,8,13,4740
1346953129,5805,42.6199989318847660,28.1615009307861330,36.0904998779296900,235.5652008056640600,-157.2191009521484400,28.1872901916503900,27.3419895172119140,62,140,100,91,58,15225,2279470107,2293434267,2295453988,2166153289,2243179977,2250187346,2240434157,2161057472,584,7,12,3561
1346953186,5804,40.7900009155273440,28.2049999237060550,36.0308990478515600,235.2373046875000000,-158.1826019287109400,28.2184104919433600,27.3445606231689450,62,140,101,90,58,15225,2285232704,2298728822,2300804717,2168096256,2252538404,2258596224,2246823725,2162167250,710,8,11,38130
1346953255,5804,38.7400016784668000,28.1749000549316400,35.9772987365722660,234.6280059814453000,-157.5480957031250000,28.1979198455810550,27.3791904449462900,59,138,102,91,57,15225,2297083739,2311082368,2314015131,2172603730,2263289472,2268737782,2254168484,2163258084,3480,9,12,28664
1346953382,5803,36.6199989318847660,28.1769008636474600,35.9667015075683600,233.8309936523437500,-157.4443969726562500,28.1945705413818360,27.4158191680908200,59,140,102,91,52,15226,2305593773,2318880228,2322294034,2177035337,2278850761,2282642258,2264582985,2165051346,40,7,12,20122